TimeCST,TemperatureF,Dew PointF,Humidity,Sea Level PressureIn,VisibilityMPH,Wind Direction,Wind SpeedMPH,Gust SpeedMPH,PrecipitationIn,Events,Conditions,WindDirDegrees,DateUTC
12:15 AM,42.8,41.0,93,30.21,3.0,Calm,Calm,-,N/A,,Clear,0,2012-11-21 06:15:00
12:23 AM,35.6,35.6,100,30.21,1.8,Calm,Calm,-,N/A,,Clear,0,2012-11-21 06:23:00
12:27 AM,37.4,35.6,93,30.21,0.5,Calm,Calm,-,N/A,Fog,Fog,0,2012-11-21 06:27:00
12:40 AM,39.2,39.2,100,30.21,1.0,Calm,Calm,-,N/A,,Mist,0,2012-11-21 06:40:00
12:50 AM,42.8,39.2,87,30.21,0.8,Calm,Calm,-,N/A,,Mist,0,2012-11-21 06:50:00
12:53 AM,43.0,41.0,93,30.21,1.0,Calm,Calm,-,N/A,,Mist,0,2012-11-21 06:53:00
12:59 AM,39.2,39.2,100,30.21,2.0,Calm,Calm,-,N/A,,Clear,0,2012-11-21 06:59:00
1:43 AM,39.2,39.2,100,30.21,1.5,WSW,3.5,-,N/A,,Clear,240,2012-11-21 07:43:00
1:53 AM,37.0,36.0,96,30.22,1.5,Calm,Calm,-,N/A,,Clear,0,2012-11-21 07:53:00
2:08 AM,37.4,35.6,93,30.21,2.5,Calm,Calm,-,N/A,,Clear,0,2012-11-21 08:08:00
2:49 AM,37.4,35.6,93,30.21,1.2,Calm,Calm,-,N/A,,Clear,0,2012-11-21 08:49:00
2:53 AM,36.0,35.1,97,30.22,1.0,Calm,Calm,-,N/A,,Clear,0,2012-11-21 08:53:00
3:03 AM,33.8,32.0,93,30.21,0.8,Calm,Calm,-,N/A,,Mist,0,2012-11-21 09:03:00
3:11 AM,37.4,35.6,93,30.21,0.2,Calm,Calm,-,N/A,Fog,Fog,0,2012-11-21 09:11:00
3:21 AM,37.4,37.4,100,30.21,1.2,Calm,Calm,-,N/A,,Scattered Clouds,0,2012-11-21 09:21:00
3:24 AM,39.2,37.4,93,30.21,3.0,Calm,Calm,-,N/A,,Scattered Clouds,0,2012-11-21 09:24:00
3:28 AM,41.0,39.2,93,30.21,1.0,Calm,Calm,-,N/A,,Mist,0,2012-11-21 09:28:00
3:35 AM,39.2,37.4,93,30.21,0.8,Calm,Calm,-,N/A,,Mist,0,2012-11-21 09:35:00
3:39 AM,41.0,39.2,93,30.21,1.8,South,3.5,-,N/A,,Partly Cloudy,190,2012-11-21 09:39:00
3:46 AM,41.0,39.2,93,30.20,2.5,SSW,4.6,-,N/A,,Clear,200,2012-11-21 09:46:00
3:53 AM,37.9,37.9,100,30.21,1.2,SSW,3.5,-,N/A,,Clear,200,2012-11-21 09:53:00
3:55 AM,37.4,37.4,100,30.20,0.8,SSW,3.5,-,N/A,,Mist,200,2012-11-21 09:55:00
4:01 AM,37.4,35.6,93,30.20,0.5,South,3.5,-,N/A,Fog,Fog,180,2012-11-21 10:01:00
4:37 AM,35.6,33.8,93,30.22,0.2,SW,4.6,-,N/A,Fog,Fog,230,2012-11-21 10:37:00
4:50 AM,37.4,37.4,100,30.22,0.2,WSW,3.5,-,N/A,Fog,Fog,240,2012-11-21 10:50:00
4:53 AM,36.0,36.0,100,30.23,0.2,WSW,4.6,-,N/A,Fog,Fog,240,2012-11-21 10:53:00
5:53 AM,35.1,35.1,100,30.24,0.2,SSW,4.6,-,N/A,Fog,Fog,200,2012-11-21 11:53:00
6:16 AM,37.4,37.4,100,30.22,0.2,SSW,4.6,-,N/A,Fog,Fog,210,2012-11-21 12:16:00
6:53 AM,37.0,36.0,96,30.26,0.2,SW,3.5,-,N/A,Fog,Fog,230,2012-11-21 12:53:00
7:23 AM,35.6,35.6,100,30.24,0.2,SSW,6.9,-,N/A,Fog,Fog,210,2012-11-21 13:23:00
7:53 AM,39.9,39.0,97,30.27,0.2,South,4.6,-,N/A,Fog,Fog,190,2012-11-21 13:53:00
8:05 AM,42.8,42.8,100,30.25,1.0,SSW,4.6,-,N/A,,Mist,200,2012-11-21 14:05:00
8:15 AM,44.6,44.6,100,30.25,1.2,SSW,5.8,-,N/A,,Clear,200,2012-11-21 14:15:00
8:30 AM,46.4,46.4,100,30.25,2.0,SSW,6.9,-,N/A,,Clear,200,2012-11-21 14:30:00
8:53 AM,46.9,46.0,97,30.27,2.5,SSW,6.9,-,N/A,,Clear,200,2012-11-21 14:53:00
9:00 AM,46.4,46.4,100,30.26,3.0,SSW,5.8,-,N/A,,Clear,200,2012-11-21 15:00:00
9:53 AM,53.1,46.9,80,30.27,5.0,South,6.9,-,N/A,,Haze,190,2012-11-21 15:53:00
10:53 AM,57.0,46.9,69,30.26,8.0,SSW,8.1,-,N/A,,Clear,210,2012-11-21 16:53:00
11:53 AM,61.0,43.0,52,30.23,10.0,SSW,5.8,-,N/A,,Clear,200,2012-11-21 17:53:00
12:53 PM,63.0,39.9,43,30.20,10.0,South,4.6,-,N/A,,Clear,170,2012-11-21 18:53:00
1:53 PM,64.0,37.9,38,30.18,10.0,SW,4.6,-,N/A,,Clear,220,2012-11-21 19:53:00
2:53 PM,64.9,35.1,33,30.17,10.0,SW,4.6,-,N/A,,Clear,220,2012-11-21 20:53:00
3:53 PM,63.0,35.1,35,30.15,10.0,South,4.6,-,N/A,,Clear,170,2012-11-21 21:53:00
4:53 PM,55.9,32.0,40,30.16,10.0,SSE,5.8,-,N/A,,Clear,160,2012-11-21 22:53:00
5:53 PM,52.0,32.0,47,30.16,10.0,SSE,8.1,-,N/A,,Clear,160,2012-11-21 23:53:00
6:53 PM,54.0,36.0,51,30.14,10.0,South,11.5,-,N/A,,Clear,190,2012-11-22 00:53:00
7:53 PM,51.1,35.1,54,30.14,10.0,South,10.4,-,N/A,,Clear,170,2012-11-22 01:53:00
8:53 PM,52.0,36.0,54,30.14,10.0,South,10.4,-,N/A,,Clear,190,2012-11-22 02:53:00
9:53 PM,51.1,39.0,63,30.13,10.0,South,11.5,-,N/A,,Clear,180,2012-11-22 03:53:00
10:53 PM,52.0,41.0,66,30.11,10.0,South,12.7,-,N/A,,Clear,180,2012-11-22 04:53:00
11:53 PM,52.0,42.1,69,30.10,10.0,South,12.7,-,N/A,,Clear,190,2012-11-22 05:53:00